EW9214 Weather Reports


Display with metric or nautical units.
time (UTC)temp
F
wind
direction
speed
MPH
gust
MPH
rain 1hr
in
rain 24hr
in
rain mn
in
humidity
%
barometer
mb
20260507144531 53 261 13.0 17.0 0.00 0.34 0.00 47 1016.0
20260507143018 50 251 11.0 15.0 0.00 0.34 0.00 52 1016.1
20260507141518 48 252 10.0 16.0 0.00 0.34 0.00 56 1016.2
20260507140010 47 250 12.0 15.0 0.00 0.34 0.00 58 1016.4
20260507134506 45 256 11.0 16.0 0.00 0.34 0.00 60 1016.6
20260507133002 42 248 9.0 12.0 0.00 0.34 0.00 69 1016.5
20260507131558 37 239 5.0 12.0 0.00 0.34 0.00 78 1016.4
20260507130105 35 248 4.0 7.0 0.00 0.34 0.00 78 1016.5
20260507124616 34 243 5.0 8.0 0.00 0.34 0.00 78 1016.5
20260507123049 33 244 5.0 10.0 0.00 0.34 0.00 79 1016.5
20260507121546 32 265 8.0 10.0 0.00 0.34 0.00 81 1016.2
20260507120044 32 257 8.0 10.0 0.00 0.34 0.00 81 1016.3
20260507114604 32 254 8.0 12.0 0.00 0.34 0.00 81 1016.3
20260507113043 32 260 8.0 10.0 0.00 0.34 0.00 81 1016.3
20260507111542 32 255 9.0 13.0 0.00 0.34 0.00 83 1016.4
20260507110044 31 257 8.0 11.0 0.00 0.34 0.00 86 1016.5
20260507104547 31 249 8.0 11.0 0.00 0.34 0.00 86 1016.7
20260507103036 32 238 10.0 13.0 0.00 0.34 0.00 86 1016.9
20260507101535 32 252 13.0 16.0 0.00 0.34 0.00 87 1016.9
20260507100037 30 254 8.0 11.0 0.00 0.34 0.00 90 1016.9
20260507094533 30 236 9.0 12.0 0.00 0.34 0.00 90 1017.1
20260507093036 30 240 9.0 12.0 0.00 0.34 0.00 91 1017.3
20260507091538 30 237 9.0 11.0 0.00 0.34 0.00 90 1017.4
20260507090027 31 248 10.0 12.0 0.00 0.34 0.00 90 1017.4
20260507084526 31 252 12.0 15.0 0.00 0.34 0.00 90 1017.5
20260507083024 32 249 14.0 18.0 0.00 0.34 0.00 90 1017.5
20260507081522 32 242 13.0 17.0 0.00 0.34 0.00 90 1017.7
20260507080019 32 248 14.0 19.0 0.00 0.34 0.00 90 1018.1
20260507074518 32 251 14.0 19.0 0.00 0.34 0.00 90 1018.2
20260507073015 32 240 14.0 18.0 0.00 0.34 0.00 91 1018.3
20260507071515 32 242 12.0 18.0 0.00 0.34 0.00 91 1018.6
20260507070013 32 246 15.0 18.0 0.00 0.34 0.00 92 1018.7
20260507064509 32 234 11.0 15.0 0.00 0.34 0.00 92 1018.8
20260507063020 31 243 10.0 13.0 0.00 0.34 0.00 93 1018.9
20260507061503 31 246 8.0 11.0 0.00 0.34 0.00 93 1018.8
20260507060004 31 234 8.0 11.0 0.00 0.34 0.00 93 1018.9
20260507054600 31 231 8.0 11.0 0.00 0.34 0.34 92 1018.9
20260507053100 32 236 10.0 13.0 0.00 0.34 0.34 92 1019.0
20260507051603 32 237 10.0 13.0 0.00 0.34 0.34 92 1019.0
20260507044559 31 234 8.0 12.0 0.00 0.34 0.34 91 1019.2
20260507043057 31 220 8.0 10.0 0.00 0.34 0.34 90 1019.2
20260507041557 31 207 7.0 10.0 0.00 0.34 0.34 89 1019.2
20260507040107 31 225 8.0 10.0 0.00 0.34 0.34 89 1019.4
20260507034559 31 218 6.0 9.0 0.00 0.38 0.34 88 1019.4
20260507033102 31 221 7.0 9.0 0.00 0.38 0.34 88 1019.2
20260507031604 31 199 6.0 7.0 0.00 0.38 0.34 87 1019.2
20260507030055 32 271 3.0 4.0 0.00 0.38 0.34 86 1019.2
20260507024555 32 271 3.0 5.0 0.00 0.40 0.34 84 1019.1
20260507023053 33 271 3.0 5.0 0.00 0.40 0.34 82 1019.0
20260507021553 34 271 4.0 5.0 0.00 0.40 0.34 81 1019.1
20260507020054 36 271 4.0 6.0 0.00 0.40 0.34 77 1018.9
20260507014556 38 284 3.0 5.0 0.00 0.44 0.34 74 1018.9
20260507013109 40 284 2.0 4.0 0.00 0.44 0.34 69 1018.9
20260507011551 40 284 2.0 3.0 0.00 0.44 0.34 69 1018.8
20260507004551 38 269 4.0 5.0 0.00 0.46 0.34 72 1018.6
20260507003049 39 269 5.0 9.0 0.00 0.46 0.34 72 1018.7
20260507001552 41 260 4.0 9.0 0.00 0.46 0.34 64 1018.6
20260507000047 41 65 1.0 4.0 0.00 0.46 0.34 68 1018.6
20260506234548 39 5 0.0 6.0 0.00 0.49 0.34 70 1018.7
20260506233100 39 360 3.0 7.0 0.00 0.49 0.34 72 1018.6
20260506231545 41 292 6.0 9.0 0.00 0.49 0.34 69 1018.6
20260506230041 40 30 3.0 7.0 0.00 0.49 0.34 78 1018.6
20260506224539 38 11 2.0 6.0 0.00 0.49 0.34 78 1018.6
20260506223037 38 71 2.0 7.0 0.00 0.49 0.34 81 1018.8
20260506221537 37 33 4.0 9.0 0.00 0.49 0.34 83 1018.9
20260506220034 37 20 5.0 9.0 0.00 0.49 0.34 85 1018.8
20260506214529 36 26 7.0 11.0 0.01 0.49 0.34 88 1018.9
20260506213028 36 42 8.0 11.0 0.01 0.49 0.34 92 1019.2
20260506211529 35 49 8.0 13.0 0.02 0.49 0.34 92 1019.3
20260506210032 35 20 8.0 13.0 0.03 0.49 0.34 93 1019.4
20260506204523 34 11 11.0 15.0 0.03 0.49 0.33 93 1019.4
20260506203021 35 12 12.0 16.0 0.04 0.49 0.33 94 1019.4
20260506201519 34 33 11.0 14.0 0.04 0.48 0.32 95 1019.4
20260506200032 33 5 9.0 14.0 0.05 0.47 0.31 95 1019.4
20260506194515 33 19 10.0 15.0 0.05 0.46 0.30 95 1019.3
20260506193014 33 15 10.0 14.0 0.05 0.45 0.28 95 1019.4
20260506191515 32 16 9.0 13.0 0.06 0.44 0.28 94 1019.3
20260506190014 33 360 9.0 13.0 0.06 0.42 0.26 95 1019.3
20260506184513 32 5 8.0 12.0 0.07 0.41 0.25 94 1019.3
20260506183012 33 18 8.0 12.0 0.09 0.40 0.24 95 1019.3
20260506181517 33 32 9.0 14.0 0.10 0.38 0.22 95 1019.3
20260506180017 32 44 11.0 15.0 0.11 0.36 0.20 95 1019.4
20260506174511 32 41 12.0 17.0 0.10 0.34 0.17 95 1019.2
20260506173009 32 29 11.0 18.0 0.08 0.31 0.14 95 1019.1
20260506171508 33 26 11.0 15.0 0.08 0.28 0.12 96 1019.2
20260506170007 33 21 11.0 14.0 0.06 0.26 0.09 96 1019.1
20260506164505 33 51 10.0 13.0 0.04 0.24 0.07 96 1019.1
20260506163002 32 40 8.0 14.0 0.04 0.23 0.06 96 1018.8
20260506161600 32 44 9.0 13.0 0.03 0.21 0.04 96 1018.7
20260506160108 32 51 11.0 16.0 0.02 0.20 0.03 96 1018.5
20260506154556 31 36 11.0 15.0 0.02 0.20 0.03 96 1018.4
20260506153154 31 31 10.0 14.0 0.01 0.19 0.02 96 1018.3
20260506151553 31 31 8.0 14.0 0.01 0.18 0.01 96 1018.3
20260506150052 31 55 10.0 14.0 0.01 0.18 0.01 96 1017.9